Mobile, AL

3:13 PM CDT on June 26, 2017 (GMT -0500)
Mobile Regional

Weather History for KMOB - January, 2013

Change the Weather History Date:

Sunday, January 20, 2013

  Actual Average Record
Temperature  
Mean Temperature 52 °F 50 °F  
Max Temperature 67 °F 61 °F 78 °F (1974)
Min Temperature 36 °F 40 °F 9 °F (1985)
Degree Days  
Heating Degree Days 13 15  
Month to date heating degree days 224 300  
Since 1 July heating degree days 825 962  
Cooling Degree Days 0 0  
Month to date cooling degree days 19 0  
Year to date cooling degree days 19 0  
Growing Degree Days 2 (Base 50)    
Moisture  
Dew Point 41 °F    
Average Humidity 66    
Maximum Humidity 92    
Minimum Humidity 39    
Precipitation  
Precipitation 0.00 in 0.19 in 5.71 in (2010)
Month to date precipitation 1.96 3.60  
Year to date precipitation 1.96 3.60  
Snow  
Snow 0.00 in 0.00 in - ()
Month to date snowfall 0.0 0.0  
Since 1 July snowfall 0.0 T  
Snow Depth 0.00 in    
Sea Level Pressure  
Sea Level Pressure 30.21 in    
Wind  
Wind Speed 2 mph (West)    
Max Wind Speed 9 mph    
Max Gust Speed 12 mph    
Visibility 9 miles    
Events      
T = Trace of Precipitation, MM = Missing Value Source: NWS Daily Summary

Daily Weather History Graph

Daily Weather History Graph

Search for Another Location

Airport or City:

Trip Planner

Search our weather history database for the weather conditions in past years. The results will help you decide how hot, cold, wet, or windy it might be!

Date:

Astronomy

Jan. 20, 2013 Rise Set
Actual Time 6:49 AM CST 5:18 PM CST
Civil Twilight 6:23 AM CST 5:44 PM CST
Nautical Twilight 5:54 AM CST 6:13 PM CST
Astronomical Twilight 5:25 AM CST 6:42 PM CST
Moon 12:18 PM CST (1/20) 1:24 AM CST (1/20)
Length of Visible Light 11h 20m
Length of Day
10h 28m
Waxing Gibbous, 66% of the Moon is Illuminated
Jan 20
Waxing Gibbous
Jan 26
Full
Feb 3
Last Quarter
Feb 10
New
Feb 17
First Quarter

Hourly Weather History & Observations

Time (CST) Temp. Windchill Dew Point Humidity Pressure Visibility Wind Dir Wind Speed Gust Speed Precip Events Conditions
12:56 AM 42.1 °F - 39.0 °F 89% 30.26 in 10.0 mi Calm Calm - N/A   Partly Cloudy
1:56 AM 39.0 °F - 37.0 °F 93% 30.26 in 6.0 mi Calm Calm - N/A   Partly Cloudy
2:56 AM 39.0 °F - 37.0 °F 93% 30.25 in 10.0 mi Calm Calm - N/A   Partly Cloudy
3:56 AM 36.0 °F 32.1 °F 34.0 °F 93% 30.25 in 6.0 mi NW 4.6 mph - N/A   Partly Cloudy
4:56 AM 39.0 °F - 36.0 °F 89% 30.24 in 8.0 mi Calm Calm - N/A   Partly Cloudy
5:56 AM 39.9 °F - 37.0 °F 89% 30.25 in 8.0 mi Calm Calm - N/A   Partly Cloudy
6:56 AM 37.9 °F - 35.1 °F 89% 30.26 in 6.0 mi Calm Calm - N/A   Partly Cloudy
7:56 AM 45.0 °F - 41.0 °F 86% 30.27 in 7.0 mi Calm Calm - N/A   Partly Cloudy
8:56 AM 53.1 °F - 46.0 °F 77% 30.28 in 10.0 mi NW 4.6 mph - N/A   Clear
9:56 AM 59.0 °F - 46.0 °F 62% 30.28 in 10.0 mi NNW 8.1 mph - N/A   Clear
10:56 AM 61.0 °F - 44.1 °F 54% 30.26 in 10.0 mi NNW 6.9 mph - N/A   Partly Cloudy
11:56 AM 63.0 °F - 43.0 °F 48% 30.22 in 10.0 mi West 4.6 mph - N/A   Partly Cloudy
12:56 PM 63.0 °F - 41.0 °F 45% 30.19 in 10.0 mi Variable 3.5 mph - N/A   Partly Cloudy
1:56 PM 64.9 °F - 41.0 °F 42% 30.16 in 10.0 mi Variable 3.5 mph - N/A   Scattered Clouds
2:56 PM 64.9 °F - 39.9 °F 40% 30.14 in 10.0 mi WSW 4.6 mph - N/A   Scattered Clouds
3:56 PM 64.9 °F - 39.0 °F 39% 30.14 in 10.0 mi West 3.5 mph - N/A   Partly Cloudy
4:56 PM 63.0 °F - 37.0 °F 38% 30.14 in 10.0 mi Calm Calm - N/A   Partly Cloudy
5:56 PM 54.0 °F - 43.0 °F 66% 30.15 in 10.0 mi South 5.8 mph - N/A   Partly Cloudy
6:56 PM 51.1 °F - 44.1 °F 77% 30.16 in 10.0 mi SSW 5.8 mph - N/A   Clear
7:56 PM 50.0 °F - 44.1 °F 80% 30.17 in 10.0 mi Calm Calm - N/A   Partly Cloudy
8:56 PM 46.9 °F - 43.0 °F 86% 30.18 in 10.0 mi SW 3.5 mph - N/A   Partly Cloudy
9:56 PM 46.0 °F - 43.0 °F 89% 30.19 in 10.0 mi Calm Calm - N/A   Partly Cloudy
10:56 PM 46.0 °F - 43.0 °F 89% 30.18 in 10.0 mi Calm Calm - N/A   Scattered Clouds
11:56 PM 44.1 °F - 42.1 °F 93% 30.16 in 6.0 mi Calm Calm - N/A   Scattered Clouds